Weather History for Altus AFB, OK

Change the Weather History Date:

Monday, January 14, 2013

  Actual Average Record
Temperature  
Mean Temperature 26 °F -  
Max Temperature 36 °F 49 °F 69 °F (2004)
Min Temperature 15 °F 26 °F 15 °F (2013)
Degree Days  
Heating Degree Days 40    
Moisture  
Dew Point 13 °F    
Average Humidity 62    
Maximum Humidity 87    
Minimum Humidity 32    
Precipitation  
Precipitation 0.00 in - - ()
Sea Level Pressure  
Sea Level Pressure 30.36 in    
Wind  
Wind Speed 8 mph (NNE)    
Max Wind Speed 15 mph    
Max Gust Speed -    
Visibility 10 miles    
Events      
Averages and records for this station are not official NWS values.
T = Trace of Precipitation, MM = Missing Value Source: NWS Daily Summary

Daily Weather History Graph

Daily Weather History Graph

Search for Another Location

Airport:

Trip Planner

Search our weather history database for the weather conditions in past years. The results will help you decide how hot, cold, wet, or windy it might be!

Date:

Astronomy

Jan. 14, 2013 Rise Set
Actual Time 7:43 AM CST 5:48 PM CST
Civil Twilight 7:16 AM CST 6:16 PM CST
Nautical Twilight 6:45 AM CST 6:47 PM CST
Astronomical Twilight 6:15 AM CST 7:17 PM CST
Moon 9:28 AM CST (1/14) 9:24 PM CST (1/14)
Length of Visible Light 10h 59m
Length of Day
10h 04m
Waxing Crescent, 11% of the Moon is Illuminated
Jan 14
Waxing Crescent
Jan 18
First Quarter
Jan 26
Full
Feb 3
Last Quarter
Feb 10
New

Hourly Weather History & Observations

Time (CST) Temp. Windchill Dew Point Humidity Pressure Visibility Wind Dir Wind Speed Gust Speed Precip Events Conditions
12:55 AM 17.6 °F 12.3 °F 14.0 °F 86% 30.37 in 10.0 mi ENE 3.5 mph - N/A   Clear
1:55 AM 15.6 °F 4.9 °F 12.4 °F 87% 30.38 in 10.0 mi North 8.1 mph - N/A   Clear
2:55 AM 16.9 °F 8.5 °F 12.6 °F 83% 30.39 in 10.0 mi NNE 5.8 mph - N/A   Clear
3:55 AM 18.3 °F 9.1 °F 13.3 °F 81% 30.40 in 10.0 mi North 6.9 mph - N/A   Overcast
4:55 AM 21.6 °F 12.1 °F 14.2 °F 73% 30.39 in 10.0 mi NNE 8.1 mph - N/A   Overcast
5:55 AM 20.5 °F 11.7 °F 13.5 °F 74% 30.40 in 10.0 mi North 6.9 mph - N/A   Overcast
6:55 AM 21.6 °F 14.0 °F 13.6 °F 72% 30.42 in 10.0 mi North 5.8 mph - N/A   Overcast
7:55 AM 21.0 °F 11.4 °F 13.1 °F 71% 30.43 in 10.0 mi NNE 8.1 mph - N/A   Overcast
8:55 AM 22.1 °F 10.0 °F 13.5 °F 69% 30.42 in 10.0 mi NE 12.7 mph - N/A   Overcast
9:55 AM 25.5 °F 13.3 °F 13.6 °F 61% 30.42 in 10.0 mi ENE 15.0 mph - N/A   Mostly Cloudy
10:55 AM 28.4 °F 17.0 °F 12.6 °F 52% 30.42 in 10.0 mi ENE 15.0 mph - N/A   Overcast
11:55 AM 31.5 °F 22.9 °F 10.6 °F 42% 30.39 in 10.0 mi NE 10.4 mph - N/A   Mostly Cloudy
12:55 PM 33.6 °F 24.6 °F 10.6 °F 38% 30.34 in 10.0 mi ENE 12.7 mph - N/A   Clear
1:55 PM 35.6 °F 27.1 °F 11.7 °F 37% 30.31 in 10.0 mi NE 12.7 mph - N/A   Partly Cloudy
2:55 PM 36.3 °F 28.4 °F 10.2 °F 34% 30.29 in 10.0 mi NE 11.5 mph - N/A   Mostly Cloudy
3:55 PM 36.1 °F 29.3 °F 9.9 °F 34% 30.30 in 10.0 mi NE 9.2 mph - N/A   Overcast
4:55 PM 36.5 °F 29.2 °F 9.3 °F 32% 30.30 in 10.0 mi NE 10.4 mph - N/A   Scattered Clouds
5:55 PM 30.4 °F 22.9 °F 13.6 °F 50% 30.31 in 10.0 mi NNE 8.1 mph - N/A   Scattered Clouds
6:55 PM 25.2 °F 15.7 °F 15.6 °F 67% 30.32 in 10.0 mi NNE 9.2 mph - N/A   Clear
7:55 PM 25.7 °F 17.1 °F 17.2 °F 70% 30.33 in 10.0 mi NNE 8.1 mph - N/A   Overcast
8:55 PM 27.1 °F 18.2 °F 17.1 °F 66% 30.32 in 10.0 mi NNE 9.2 mph - N/A   Overcast
9:55 PM 25.7 °F 15.7 °F 16.3 °F 68% 30.31 in 10.0 mi NNE 10.4 mph - N/A   Scattered Clouds
10:55 PM 25.2 °F 15.7 °F 16.5 °F 70% 30.31 in 10.0 mi NNE 9.2 mph - N/A   Mostly Cloudy
11:55 PM 27.5 °F 16.3 °F 15.6 °F 61% 30.30 in 10.0 mi NNE 13.8 mph - N/A   Overcast